Preview of NWS' New Version of Forecast
This preview is not operational and should not be used for support decisions.

Regional Weather Roundup (RWR)

Issued by National Weather Service (NWS)

                            
000
ASUS43 KLSX 210657
RWRMO 

WEATHER SUMMARY FOR MISSOURI
NATIONAL WEATHER SERVICE SPRINGFIELD MO
200 AM CDT SAT SEP 21 2019

NOTE: "FAIR" INDICATES FEW OR NO CLOUDS BELOW 12,000 FEET WITH NO
       SIGNIFICANT WEATHER AND/OR OBSTRUCTIONS TO VISIBILITY.
       CURRENT SKY AND/OR WEATHER CONDITIONS ARE NOT AVAILABLE FOR
       CHILLICOTHE AND FARMINGTON.

MOZ001>031-035>038-043-044-053-054-210800-
...NORTHERN AND WESTERN MISSOURI...
  
CITY           SKY/WX    TMP DP  RH WIND       PRES   REMARKS
KANSAS CTY INT CLOUDY    72  70  93 S16       29.97S                  
LEE'S SUMMIT   CLOUDY    73  68  84 S20G28    30.00R                  
ST JOSEPH      CLOUDY    72  69  90 S10       29.95S                  
CHILLICOTHE      N/A     73  68  84 S8        30.00S                  
     
$$
MOZ066>068-077>081-088>096-101>105-210800-
...SOUTHWEST MISSOURI...
  
CITY           SKY/WX    TMP DP  RH WIND       PRES   REMARKS
SPRINGFIELD    MOCLDY    72  67  84 S14       30.07S                  
JOPLIN         CLEAR     74  70  87 S13G21    30.02F                  
               
$$
MOZ032>034-039>042-045>050-055>058-069>072-210800-
...CENTRAL MISSOURI...  
  
CITY           SKY/WX    TMP DP  RH WIND       PRES   REMARKS
COLUMBIA       NOT AVBL                                               
JEFFERSON CITY CLOUDY    77  68  73 S9G20     30.06S                  
ROLLA          MOCLDY    74  66  76 S15G22    30.11S                  
SEDALIA        MOCLDY    70  68  93 S10       30.04F                  
WARRENSBURG    CLOUDY    72  66  83 SE9G17    30.01S                  
               
$$
MOZ051-052-059>065-210800-
...EAST CENTRAL MISSOURI...
  
CITY           SKY/WX    TMP DP  RH WIND       PRES   REMARKS
ST LOUIS INTL  CLOUDY    74  69  85 S10       30.12S                  
                   
$$
MOZ072>076-082>087-097>100-106>115-210800-
...SOUTH CENTRAL AND SOUTHEAST MISSOURI...
  
CITY           SKY/WX    TMP DP  RH WIND       PRES   REMARKS
CAPE GIRARDEAU FAIR      70  68  93 S3        30.15R                  
POPLAR BLUFF   FAIR      70  68  93 CALM      30.14S                  
WEST PLAINS    CLOUDY    73  68  84 S8        30.15S                  
                                       
$$